Theta_e
313 316 316 315 316 316 316 323 333 335 339 337 337 334 330 329 329 331 334 333 333 334 331 329 328 327 327 326 324 323 323 323 324 321 318 318 321 322 322 323 324 325 327
310 312 313 315 318 323 327 327 333 338 339 340 336 333 330 327 329 329 334 335 333 333 330 329 327 326 324 323 322 321 319 320 324 318 315 312 316 321 322 322 323 324 324
309 310 312 314 318 323 329 333 336 337 337 336 334 328 327 326 324 324 326 329 332 331 329 328 326 325 324 323 321 319 319 316 318 319 317 311 308 311 315 319 321 322 322
309 311 311 316 321 326 332 336 337 337 337 337 332 329 323 322 323 324 325 327 330 330 330 328 327 325 323 321 321 322 319 317 314 316 320 316 315 310 307 314 318 320 322
307 308 310 319 325 329 330 336 336 336 334 332 331 327 322 323 322 324 324 326 326 328 330 327 326 324 323 322 322 322 320 318 316 314 315 315 315 317 312 306 311 317 319
306 314 317 326 326 329 332 334 333 329 330 329 326 323 323 322 323 322 323 323 324 326 327 327 324 324 323 323 322 323 322 320 318 317 316 316 314 313 312 312 309 312 320
308 320 322 325 328 330 332 331 330 327 327 325 325 324 324 323 323 322 322 323 323 322 323 324 323 323 325 326 325 323 322 321 319 318 318 317 317 315 312 311 311 313 319
317 320 323 326 329 330 330 328 327 327 326 326 324 324 324 324 323 323 322 322 322 323 324 324 324 325 327 327 326 324 323 322 322 319 319 319 319 319 314 312 317 313 317
318 320 324 327 328 327 327 326 326 325 324 326 325 324 325 324 323 322 322 322 322 322 325 325 325 326 327 327 326 325 323 322 321 322 321 320 321 321 321 317 318 315 310
319 322 324 326 326 326 326 326 325 323 324 325 325 325 324 325 324 324 323 323 322 324 324 325 325 325 325 326 326 325 325 322 320 321 322 323 322 322 321 319 318 316 314
319 322 324 325 325 327 326 324 324 323 324 325 324 324 324 325 323 322 323 323 322 324 325 326 326 326 325 325 324 325 324 322 321 318 320 321 320 319 323 321 317 315 314
320 322 323 324 325 326 325 323 323 322 323 325 324 323 324 323 322 323 323 321 321 322 324 326 327 327 324 323 323 324 324 322 322 320 319 321 323 322 322 321 319 317 316
320 321 322 324 325 325 325 323 323 322 323 326 326 324 323 323 322 322 322 321 321 322 322 325 325 325 324 327 327 327 326 323 322 322 319 320 322 322 321 321 320 321 322
320 321 322 323 324 325 325 323 321 322 324 326 326 324 323 323 322 322 322 324 324 326 324 325 325 326 325 326 328 327 324 325 324 324 322 323 323 322 321 320 320 321 320
319 320 321 322 323 323 323 322 321 321 323 326 327 325 324 323 323 322 324 325 326 326 327 325 324 322 321 318 319 327 324 320 319 323 325 324 323 321 320 321 320 320 319
319 321 321 323 322 322 321 321 321 319 326 328 328 328 325 324 322 322 326 325 325 326 326 323 322 318 319 302 307 319 322 321 323 322 321 321 318 315 312 313 313 318 318
319 320 321 323 323 322 320 318 318 324 326 328 329 327 326 324 323 322 322 324 324 325 322 319 318 315 313 300 304 311 321 322 324 323 322 321 319 318 318 311 311 310 309
320 321 322 323 322 320 317 317 323 325 326 327 328 327 328 324 323 322 321 320 320 325 319 317 315 313 313 301 304 308 321 322 323 324 323 320 321 320 320 320 319 319 319
321 322 323 323 320 318 317 319 323 324 324 328 326 326 326 324 324 322 321 320 320 319 319 318 315 314 315 301 304 315 321 321 323 324 324 322 321 305 307 320 318 317 315
322 322 323 322 319 316 318 318 320 322 323 325 326 326 325 325 323 322 321 321 324 322 323 319 317 312 315 300 303 316 323 322 322 323 320 308 314 301 305 320 319 316 316
321 323 322 320 318 317 318 316 316 319 323 326 325 324 324 324 323 322 322 322 322 322 321 319 316 315 314 310 302 307 321 322 321 321 320 315 300 300 302 309 319 315 317
322 322 320 318 317 318 317 315 314 316 319 323 324 323 325 326 325 323 323 322 320 320 318 317 316 315 315 305 302 304 309 312 321 321 320 311 299 300 301 309 299 302 311
321 322 319 317 316 317 318 315 315 315 320 323 323 325 326 326 325 324 322 320 319 320 319 319 318 314 314 314 301 302 303 306 316 318 311 299 298 298 300 299 301 305 320
322 322 319 317 315 315 317 317 315 317 325 323 323 325 326 323 325 325 324 321 319 319 319 319 315 314 314 315 313 312 310 304 310 306 307 306 306 304 307 308 310 319 318
320 324 320 318 317 316 317 318 317 321 324 323 324 325 325 324 323 319 319 323 322 321 321 321 320 317 316 316 310 313 316 314 310 310 314 316 316 314 315 318 320 320 318
318 321 321 320 319 318 317 319 317 323 323 322 324 325 324 323 320 314 310 298 300 299 303 308 316 320 310 299 299 301 301 298 301 314 315 312 313 315 317 318 318 318 316
Wind_Speed
18 15 13 11 6 8 9 10 10 9 10 8 7 6 7 6 5 5 9 6 5 8 9 5 5 4 5 6 6 3 6 4 3 1 2 2 4 5 4 3 3 4 5
12 10 8 8 9 8 8 8 9 12 9 8 5 5 6 3 5 5 7 9 11 8 6 6 5 5 3 5 3 5 2 2 5 3 1 1 3 3 5 3 4 6 4
13 12 10 12 7 9 9 9 10 10 7 9 9 5 5 4 4 3 3 4 8 7 7 6 5 5 4 4 3 4 6 3 3 4 4 2 4 0 2 5 4 4 3
9 10 9 6 9 7 6 8 8 10 10 10 9 12 5 4 3 4 3 4 6 6 6 6 5 5 3 4 3 3 3 3 4 1 3 1 3 3 2 2 3 2 3
11 13 12 8 6 8 8 9 10 9 8 9 11 8 6 3 3 3 6 5 4 6 5 6 5 3 3 4 4 3 4 3 3 3 2 3 1 2 2 1 1 3 1
10 1 5 12 9 7 8 9 10 7 9 9 9 9 9 6 6 5 5 4 3 3 3 4 4 4 4 5 4 5 5 5 4 3 3 3 3 4 3 2 1 3 1
5 8 10 11 12 11 11 9 11 8 9 10 9 9 9 9 9 7 5 5 3 2 3 3 4 4 5 5 5 4 5 5 4 5 5 4 5 3 3 3 2 3 1
5 8 10 11 12 12 10 10 11 9 10 9 9 8 8 6 5 5 4 4 3 3 3 4 4 5 5 5 4 3 4 5 4 6 5 4 5 4 4 5 4 3 2
9 11 11 12 12 10 9 10 10 9 9 9 8 7 7 8 6 7 5 3 4 3 4 4 4 3 3 3 2 3 3 3 4 3 5 4 3 4 4 4 4 6 4
12 12 11 11 10 9 9 9 9 10 8 9 7 7 8 7 6 6 6 5 4 4 4 3 3 2 2 2 3 1 4 5 2 1 3 2 2 2 2 4 4 3 5
13 13 12 10 11 10 9 8 8 9 8 8 7 7 6 7 6 6 5 6 4 5 5 4 3 3 2 1 3 3 4 4 2 2 3 3 4 3 3 4 3 4 4
13 13 13 13 12 11 10 8 7 8 7 7 7 7 7 7 6 6 6 5 5 4 4 4 3 3 2 1 3 3 5 5 4 3 3 4 3 5 5 5 6 4 4
15 13 13 13 12 10 10 9 7 8 7 6 7 7 7 7 6 6 6 5 5 4 3 5 4 3 1 0 0 3 4 5 5 4 4 4 6 5 5 7 8 7 7
17 15 13 13 12 11 11 10 8 8 7 7 8 8 7 7 6 5 4 5 3 4 5 6 4 3 2 4 4 2 3 5 4 3 3 5 6 8 7 8 9 9 10
17 16 15 13 12 11 10 10 8 7 7 8 9 7 5 6 6 5 3 1 5 3 6 6 5 4 4 4 4 5 4 6 5 4 4 5 6 9 7 7 9 11 10
18 17 16 15 14 13 11 11 9 7 8 9 9 7 7 6 6 5 4 5 3 5 6 6 5 5 3 8 6 5 5 5 4 6 6 6 9 10 12 12 11 8 13
19 18 17 16 14 13 11 10 8 7 7 9 9 9 8 6 6 6 5 5 5 6 6 6 5 5 3 8 7 8 5 5 4 5 7 7 7 12 12 16 16 16 15
18 17 15 14 13 12 9 8 10 9 9 8 11 7 9 7 6 6 6 4 3 6 6 5 5 4 2 6 7 9 6 6 6 5 7 9 9 12 14 13 12 12 10
16 16 15 15 13 13 11 12 10 10 10 10 10 8 9 7 7 6 6 4 4 5 5 5 6 5 2 6 6 8 5 7 7 6 7 8 10 10 14 14 13 12 11
13 14 15 14 14 11 12 14 11 10 9 10 10 8 9 7 7 7 6 3 4 5 5 5 5 6 5 4 6 7 6 8 6 5 7 10 9 11 11 14 14 12 9
14 13 15 16 15 13 13 13 12 11 10 12 10 8 7 9 8 6 3 4 5 5 5 6 4 4 4 3 7 11 5 7 7 5 6 5 12 12 12 10 8 11 11
16 16 14 13 12 13 14 12 12 10 7 10 10 8 8 7 6 7 4 6 6 7 6 6 4 2 4 4 6 11 9 8 9 6 6 6 11 13 13 9 14 15 12
8 12 14 12 11 11 13 13 11 8 8 10 9 9 7 6 6 7 6 4 5 7 6 6 5 3 2 2 5 12 12 10 7 5 9 12 11 12 11 15 15 12 8
7 7 8 12 11 8 11 13 9 9 12 11 11 10 10 7 6 4 4 5 5 5 5 5 4 3 3 3 3 5 6 9 7 10 7 6 8 7 8 7 7 4 4
5 6 10 9 11 9 10 9 9 12 11 12 11 9 7 8 6 4 3 4 4 7 7 5 6 6 4 4 6 8 6 6 8 8 6 5 5 5 6 6 7 4 5
10 8 7 10 7 7 8 9 10 13 13 11 10 9 8 6 5 6 3 6 3 2 6 10 8 3 6 11 10 10 13 15 15 6 6 4 5 7 8 8 8 5 7
Wind_Direction
247 251 250 242 227 226 193 190 168 166 149 156 152 145 153 140 124 137 144 145 171 190 195 193 191 168 187 199 212 220 227 221 163 141 302 286 260 255 234 208 227 212 207
257 263 240 219 196 193 202 172 172 160 164 163 156 117 132 109 138 147 162 176 181 184 176 187 185 178 204 244 221 203 210 234 176 162 126 226 299 272 250 216 206 213 193
258 260 229 218 190 185 181 168 155 141 128 116 111 89 76 76 96 120 147 192 182 170 174 171 170 186 183 229 223 213 188 179 212 209 146 137 221 209 313 239 221 218 197
245 240 244 180 184 174 125 110 118 127 131 131 116 137 133 140 181 165 152 154 161 166 146 160 159 176 177 205 224 206 184 146 177 202 247 170 138 168 336 330 240 211 232
240 236 231 184 165 142 129 121 121 124 128 118 128 132 124 127 132 104 117 126 118 126 148 149 171 162 198 204 207 197 191 181 164 179 153 216 152 123 142 277 288 57 15
257 191 163 141 130 116 110 113 117 119 115 114 126 130 135 131 116 108 113 123 110 117 164 160 169 184 193 204 207 209 203 198 191 186 194 172 168 181 158 165 255 158 142
197 147 142 138 129 127 123 118 122 119 117 114 114 122 121 125 125 138 142 139 130 193 182 167 182 193 207 213 198 197 207 201 192 197 210 190 208 164 137 121 184 146 124
145 136 132 126 123 126 123 120 122 118 116 115 114 107 109 117 122 137 143 159 180 161 166 167 187 210 219 221 210 202 202 203 214 213 215 209 210 172 168 159 153 104 91
130 126 122 123 125 123 122 126 123 116 117 118 110 109 113 113 126 130 131 146 129 156 168 177 196 233 229 194 202 219 222 192 190 204 203 206 205 185 171 174 154 141 142
132 129 126 128 121 123 126 114 117 124 122 117 116 121 125 122 129 130 130 140 152 153 163 179 194 166 116 132 137 133 103 131 169 142 176 135 110 152 171 163 144 127 121
142 134 130 126 126 124 125 121 122 121 120 126 128 126 137 127 130 136 150 153 172 173 177 187 180 150 153 125 92 161 141 136 137 87 127 111 124 125 130 109 117 119 128
139 133 133 133 133 135 133 133 128 129 140 145 129 137 132 129 141 157 159 160 151 181 180 169 156 157 151 89 123 159 171 156 144 124 118 136 128 104 91 104 104 108 101
138 137 136 141 142 144 143 140 143 151 153 138 135 132 137 142 149 161 160 169 172 185 173 147 153 160 174 89 143 225 171 175 151 138 151 169 132 105 110 111 113 115 109
145 144 144 147 147 149 154 151 159 155 161 151 145 147 156 152 157 166 175 174 209 219 152 142 153 117 54 37 8 141 98 127 139 134 134 145 126 129 133 121 119 120 117
150 150 150 151 151 152 154 156 167 153 158 150 144 156 148 141 152 162 175 216 183 158 130 123 102 83 54 25 357 101 123 104 103 93 115 116 113 124 123 133 129 128 129
154 154 152 154 156 161 160 161 168 155 154 155 147 148 139 149 154 154 127 97 141 113 113 116 119 90 51 350 38 109 100 86 91 94 86 104 100 99 100 91 82 121 137
158 160 159 160 161 167 158 166 155 148 142 149 145 153 143 152 165 154 139 121 126 108 108 115 117 106 77 10 80 100 93 98 97 95 102 94 105 108 104 87 81 71 68
161 164 158 160 163 161 155 140 146 150 144 149 154 160 148 162 161 149 142 136 129 132 132 130 123 111 54 17 108 106 103 92 84 82 106 118 113 119 112 103 93 84 75
166 166 159 160 158 158 153 144 151 151 150 157 159 170 149 156 157 160 152 153 138 132 138 139 134 127 91 29 117 112 100 101 102 97 111 125 114 113 120 109 102 88 74
157 159 158 154 153 155 153 146 153 159 167 162 167 173 155 159 162 159 164 155 144 138 133 129 143 147 136 39 143 123 116 120 115 95 96 96 120 111 107 122 125 113 111
147 147 153 157 159 152 154 155 155 169 182 162 160 162 154 167 161 146 132 147 134 123 121 121 124 143 134 90 142 122 120 133 126 120 117 122 127 114 101 102 117 118 115
144 150 151 155 155 155 156 161 166 178 161 156 154 142 135 142 142 134 127 119 127 129 129 121 118 126 101 87 142 121 117 129 137 131 128 134 129 120 108 100 116 119 121
121 146 144 147 158 160 164 162 187 144 147 148 143 142 131 129 143 134 136 117 122 136 141 144 152 147 119 101 129 128 126 120 117 129 124 130 129 108 94 128 138 140 139
92 101 131 149 168 164 169 172 171 133 146 147 145 147 143 143 138 122 130 131 142 139 145 148 146 147 143 143 132 115 102 99 88 105 116 116 113 88 121 133 146 134 131
83 134 159 163 176 170 173 175 157 139 147 150 148 152 147 155 135 98 140 159 186 178 165 169 161 157 173 194 156 143 135 132 131 114 127 130 129 128 145 158 161 144 144
30 44 161 157 172 169 182 180 151 146 147 151 155 158 156 157 150 140 118 50 46 321 227 161 160 171 159 143 143 135 133 134 145 134 156 153 154 161 161 170 175 172 175